Presure
160 155 161 174 170 164 172 170 168 172 165 151 150 149 186 164 187 166 182 183 171 183 203 203 199 217 230 227 234 242 340 321 305 299 293 290 286 290 284 281 261 235 226 227
166 138 178 198 165 178 189 182 157 148 159 159 176 183 177 147 196 186 190 179 174 189 174 203 171 173 190 201 216 225 234 219 226 233 240 248 247 250 325 339 342 377 327 333
178 173 178 182 186 168 177 180 176 141 186 171 168 179 132 184 180 184 156 150 182 185 194 197 193 195 180 167 171 210 205 204 222 218 215 220 220 220 227 218 231 227 227 228
179 182 162 174 170 179 174 184 176 183 178 155 187 146 190 157 138 162 189 181 175 174 190 162 166 174 196 187 161 182 168 173 199 196 214 232 214 209 220 227 221 208 235 223
125 185 184 185 201 175 169 183 160 180 187 143 171 176 151 169 175 172 128 175 199 172 186 158 148 152 175 182 176 208 166 154 179 175 196 194 187 214 205 172 223 212 213 205
168 168 170 184 178 205 187 181 177 171 169 173 186 155 138 170 192 174 183 136 166 167 198 164 185 155 198 159 172 205 207 187 183 177 183 187 218 169 211 196 182 197 191 220
186 171 182 165 193 176 190 179 183 157 185 173 171 183 178 146 161 186 154 180 154 186 154 188 177 187 141 180 183 163 151 148 188 168 174 171 176 172 168 192 178 199 219 200
193 193 182 195 186 179 175 195 195 176 173 175 151 184 175 180 170 151 170 197 163 179 162 186 156 148 196 172 160 175 199 182 190 189 186 196 178 198 210 179 211 171 208 211
175 178 176 191 156 174 207 161 165 168 198 150 171 148 198 194 173 148 149 163 182 167 153 170 166 185 186 158 161 193 189 192 200 173 196 185 169 193 180 201 180 178 176 213
193 189 198 181 182 173 176 189 184 186 187 192 162 174 169 180 171 165 172 171 167 183 169 178 153 151 155 183 173 193 162 200 163 157 202 179 173 192 197 188 182 182 191 198
185 177 167 170 203 176 174 175 172 171 179 164 169 153 175 153 176 161 161 187 175 168 141 143 187 192 155 155 202 156 154 134 176 216 166 164 210 192 149 178 209 173 174 206
186 180 201 194 195 181 203 135 169 162 185 165 177 184 182 181 174 178 178 147 139 176 194 202 148 157 164 189 136 154 179 175 197 155 186 197 159 149 194 199 151 149 181 180
196 187 192 194 210 207 196 178 196 189 206 184 174 170 182 171 198 194 194 159 204 198 142 186 210 219 160 201 142 153 143 187 160 144 198 198 207 192 159 153 173 153 200 203
198 183 197 203 204 205 188 190 197 202 216 216 192 207 208 206 178 171 197 191 159 169 211 220 168 172 163 178 187 215 170 150 221 176 178 185 156 199 188 192 174 172 180 198
187 202 196 202 191 205 211 208 205 226 205 201 211 203 213 223 225 220 216 212 227 229 225 225 220 226 215 245 224 182 142 178 185 159 218 205 207 195 167 197 190 191 170 184
202 181 159 195 233 194 220 244 195 209 243 230 224 199 198 205 226 213 215 206 213 222 222 221 241 206 203 257 271 211 227 221 229 222 222 222 216 218 202 205 213 221 226 203
181 169 238 170 238 232 234 227 237 209 212 220 211 227 226 255 247 229 215 237 215 217 264 254 225 273 238 254 260 222 217 125 237 233 233 232 227 234 211 93 220 203 172 207
217 217 232 225 195 225 240 221 215 245 246 216 239 250 163 254 246 266 255 248 250 256 288 289 199 255 284 164 109 85 84 121 250 256 244 238 236 232 232 230 241 234 192 240
228 205 214 206 243 236 249 228 209 268 244 281 286 248 272 212 295 264 246 265 285 253 305 264 165 288 254 187 293 299 227 269 243 245 259 256 250 244 243 211 239 229 240 227
251 244 244 240 242 227 251 246 276 262 261 290 265 308 253 260 293 261 261 283 253 284 277 282 307 333 234 99 286 287 250 249 249 259 256 294 241 254 258 257 246 240 235 236
239 231 250 241 251 245 253 238 249 243 257 246 254 288 292 275 275 263 235 281 281 244 298 295 279 156 93 82 91 320 313 273 247 313 319 283 301 301 257 245 203 293 104 239
268 273 245 256 260 231 226 258 228 273 261 246 286 246 295 271 274 288 297 279 301 299 286 295 206 266 147 85 292 293 295 289 279 275 279 287 216 87 192 297 94 98 142 255
237 235 242 246 266 245 289 287 259 240 284 273 276 287 301 233 266 289 286 315 302 309 309 311 272 286 276 273 222 280 274 269 286 298 289 244 295 319 191 94 91 229 177 293
295 304 280 235 244 239 295 296 304 306 304 304 300 300 299 295 308 296 302 300 308 315 316 296 298 286 301 307 299 300 287 306 308 294 299 287 284 282 295 289 291 299 298 292
273 273 314 318 310 305 307 303 300 305 304 307 307 306 307 310 311 315 315 314 314 307 300 289 303 303 304 298 296 283 281 291 283 299 299 309 299 300 283 284 294 294 306 309
338 328 323 312 314 316 321 320 322 320 319 321 316 323 331 319 332 331 326 322 318 320 310 322 318 324 322 314 313 314 312 306 299 307 310 301 299 296 291 301 298 288 292 288
346 339 334 333 341 345 346 340 341 336 332 336 340 373 370 343 419 410 385 342 343 348 350 353 370 370 366 354 342 362 359 358 281 324 332 196 82 339 344 350 337 341 349 346
Wind_Speed
27 28 26 32 29 18 33 22 15 19 10 26 26 26 31 22 29 24 26 27 19 25 36 33 31 39 33 27 26 24 17 17 16 18 18 19 19 22 20 23 22 28 31 38
30 31 36 34 26 36 40 37 11 17 15 32 17 24 17 24 33 18 29 19 15 20 14 28 10 12 19 21 25 27 30 16 18 21 22 23 21 19 22 22 22 34 11 30
42 40 39 41 41 29 35 34 33 30 38 16 5 23 13 25 29 18 20 17 20 11 17 14 19 14 13 9 5 19 13 12 19 14 11 13 10 6 11 4 15 10 10 8
46 43 36 41 35 40 34 41 33 37 34 20 37 26 36 11 22 30 18 7 21 3 13 14 11 10 9 11 11 14 9 7 10 6 7 17 5 3 11 13 10 7 24 9
31 48 46 50 43 43 36 43 25 40 42 31 22 24 31 10 15 25 10 7 31 10 6 19 16 17 11 17 9 16 16 19 18 16 6 9 11 1 4 18 9 3 4 8
53 49 48 50 48 48 45 45 43 33 36 30 44 31 33 24 40 18 27 21 21 15 29 22 24 14 24 25 13 20 17 13 17 23 14 14 12 23 11 10 21 12 18 10
63 51 59 47 56 49 51 45 49 32 47 39 33 42 35 36 27 41 21 22 17 33 35 25 21 20 21 21 23 25 26 27 28 26 25 29 26 25 27 16 29 19 13 20
64 63 66 62 59 50 55 56 52 46 47 43 31 46 42 46 41 34 29 50 37 24 29 33 36 39 42 30 25 26 38 24 36 18 27 27 32 12 23 31 26 36 18 20
73 70 68 66 46 57 61 44 44 49 56 37 48 42 55 50 40 40 37 27 46 40 47 29 34 44 43 44 44 37 31 38 41 32 41 29 36 20 35 23 38 44 44 32
76 74 75 76 75 62 70 67 66 65 64 64 46 55 48 59 42 47 44 41 36 52 33 43 44 39 37 52 46 50 47 52 42 38 46 48 44 41 31 39 40 40 45 35
82 80 74 73 80 76 74 73 66 64 68 51 54 46 59 46 61 51 54 63 48 41 48 39 56 59 56 55 62 53 43 38 59 54 46 55 51 42 51 44 50 54 49 47
85 87 84 82 82 83 84 53 63 56 79 66 68 80 76 76 66 68 71 54 55 66 75 77 58 58 63 65 49 65 49 47 64 63 48 55 64 60 51 54 62 52 59 61
91 91 91 90 92 91 88 79 89 88 89 89 78 65 80 68 90 87 90 52 87 84 59 68 84 83 67 81 65 68 69 71 72 63 72 61 64 54 69 65 60 70 57 68
96 90 94 95 98 97 91 93 92 93 94 96 87 93 90 91 84 80 94 89 70 56 97 92 71 73 71 77 72 87 76 77 84 55 66 72 52 70 54 56 67 73 67 63
99 104 103 102 98 104 105 101 101 100 96 91 98 97 101 98 97 102 106 104 103 104 101 99 92 88 93 87 95 74 79 86 74 69 87 77 84 79 72 74 63 80 68 78
110 98 75 104 110 101 118 96 97 106 101 100 99 94 99 105 108 105 105 100 104 104 103 101 101 93 96 91 84 96 96 99 105 97 91 91 88 92 84 84 86 93 94 80
97 81 103 83 99 105 107 113 104 107 112 105 99 104 109 114 117 117 107 111 105 105 106 105 99 95 92 94 88 95 76 40 106 106 104 101 96 101 93 25 92 82 69 90
111 106 105 112 101 109 108 113 113 119 121 113 106 109 56 106 100 107 104 105 103 98 96 91 69 99 93 59 32 25 29 51 106 109 107 102 106 104 104 104 108 102 88 106
118 117 103 115 126 115 126 116 115 115 115 112 103 103 105 107 98 102 103 100 92 99 84 94 58 84 94 62 87 91 80 97 104 104 107 111 113 112 115 97 112 99 106 92
132 133 132 125 121 111 129 118 122 112 111 99 102 85 101 97 91 97 100 93 96 92 87 88 84 84 90 2 90 97 100 102 100 104 107 99 97 110 110 117 117 112 107 104
124 114 132 115 124 118 116 107 109 110 110 103 98 93 92 94 96 96 95 90 91 89 79 87 85 41 6 29 34 98 95 100 102 101 100 100 100 102 107 104 84 98 25 103
138 131 113 122 117 107 108 109 108 108 102 106 97 100 93 96 96 94 91 92 88 85 86 85 45 84 50 29 94 96 97 98 97 97 97 96 69 31 60 88 29 31 46 91
109 108 109 111 115 112 106 106 111 108 102 103 102 98 94 100 97 96 96 91 90 87 85 85 78 89 93 96 80 97 97 97 94 93 93 96 92 93 68 40 37 85 65 86
112 106 114 108 114 114 107 105 101 100 98 98 98 98 96 95 94 95 93 94 90 89 87 89 93 93 90 92 94 94 95 93 92 94 93 93 92 93 94 93 95 93 92 93
107 105 95 95 101 103 100 101 100 98 98 96 96 96 95 94 95 92 91 92 92 92 94 98 95 93 92 93 93 94 92 92 93 93 94 93 93 92 92 94 94 95 92 92
85 83 88 95 97 95 93 92 91 93 93 92 93 94 91 91 91 88 89 93 92 94 96 94 94 93 94 93 92 91 91 89 91 92 93 92 92 92 91 91 93 95 95 91
69 72 81 84 80 80 80 81 83 86 87 86 87 80 81 84 75 73 77 90 93 92 92 89 91 90 90 91 91 89 88 89 77 92 92 42 9 90 90 88 87 88 85 84
Wind_Direction
298 300 308 321 326 330 337 344 348 347 348 352 344 356 31 10 36 18 41 33 39 49 48 40 48 51 58 59 69 71 234 232 241 248 252 257 258 262 267 264 255 256 257 261
294 310 309 309 313 322 323 329 300 339 311 337 7 5 31 350 16 56 26 32 35 52 46 52 66 60 37 46 55 68 68 69 73 77 76 78 76 74 253 262 264 262 254 252
294 296 300 307 308 308 318 319 319 319 329 318 328 355 341 356 343 25 337 344 20 54 45 58 32 57 20 357 8 49 53 47 66 72 76 83 92 66 76 91 82 86 91 96
285 288 292 299 298 306 308 311 315 318 323 288 323 319 339 309 332 330 0 10 344 348 28 327 333 346 72 4 288 338 313 287 19 3 56 74 102 140 61 72 110 216 65 80
274 279 282 289 285 300 298 301 285 309 311 307 311 316 289 299 340 339 262 216 337 267 1 307 305 312 281 331 281 30 277 274 309 295 347 321 314 157 288 262 115 217 181 230
284 284 286 283 286 287 285 292 300 301 298 293 307 284 300 276 315 319 320 313 304 320 327 282 331 278 336 295 283 329 340 278 278 284 276 270 344 264 277 275 279 271 277 355
271 276 279 285 278 285 282 286 286 276 288 301 302 299 303 277 294 313 299 314 286 321 298 314 294 300 286 275 283 271 283 276 302 276 281 276 281 276 275 265 279 293 337 259
264 268 275 277 276 280 286 279 283 289 295 292 269 293 293 299 300 286 285 301 292 305 268 306 277 293 310 290 290 263 307 248 301 272 273 307 279 243 319 268 306 272 307 304
275 274 279 270 273 279 275 284 286 288 282 266 294 273 287 283 288 269 261 269 302 256 272 259 280 309 309 271 267 302 299 297 300 260 303 241 271 253 280 286 260 275 275 302
261 264 265 275 277 274 283 275 277 280 281 276 269 289 288 287 290 275 291 288 288 295 264 300 279 287 266 295 293 299 270 297 291 286 295 277 289 283 271 280 257 263 292 288
264 272 280 279 268 278 282 283 284 285 281 281 285 261 283 259 290 286 275 291 284 279 274 286 293 275 274 265 287 265 284 285 277 284 279 286 285 277 286 270 294 261 278 289
261 267 263 264 263 271 269 269 282 283 276 283 280 282 285 285 287 289 288 259 283 291 292 286 272 259 278 285 288 271 287 267 287 269 282 278 270 284 281 289 287 285 252 268
258 263 263 265 267 264 263 278 269 272 273 277 283 269 284 285 279 281 282 263 281 283 279 292 286 284 263 284 279 283 281 283 259 283 285 276 277 286 276 284 253 285 286 286
260 265 261 263 265 265 270 269 268 268 273 273 280 277 277 277 276 275 279 284 267 270 282 283 279 283 283 284 285 285 280 271 280 258 259 285 270 287 274 277 256 271 270 277
260 262 262 263 267 266 267 267 269 271 267 270 273 273 275 273 272 272 273 275 274 275 278 280 282 280 279 275 278 283 279 273 276 259 279 274 281 272 267 281 276 280 271 268
259 270 270 264 265 268 269 278 272 270 275 270 270 272 274 275 273 274 274 280 278 278 279 281 280 281 284 276 265 279 269 277 276 278 278 279 278 279 270 273 281 281 280 282
268 269 269 276 269 269 273 271 276 274 270 274 272 271 274 277 274 274 276 274 279 280 280 279 280 277 276 277 272 275 262 269 268 273 276 277 279 276 277 298 279 280 274 274
260 267 271 266 266 273 280 268 267 280 280 273 278 282 276 275 276 276 277 279 277 278 279 277 273 276 274 278 283 280 283 282 269 266 270 274 274 276 276 277 276 277 278 278
269 259 269 264 282 281 283 273 272 286 277 283 282 280 277 276 279 276 276 275 274 276 274 275 273 273 276 276 270 267 270 267 270 271 268 269 269 271 272 274 275 277 279 278
274 273 273 275 279 274 284 283 284 283 281 280 281 278 278 278 276 277 277 276 276 276 276 276 273 269 274 129 267 266 271 270 270 269 270 268 274 272 271 270 274 277 279 280
271 270 275 275 278 277 278 275 279 278 279 278 278 277 277 276 277 276 276 277 275 278 275 274 275 260 21 263 298 268 266 266 272 269 269 270 271 270 272 275 273 273 292 278
275 276 271 276 276 271 272 277 273 277 278 276 277 276 275 276 275 275 275 277 277 276 275 274 271 274 266 273 266 267 268 269 269 270 271 273 274 279 277 275 280 293 284 279
269 269 273 275 276 273 275 274 277 275 277 277 277 276 275 275 275 275 276 275 276 275 274 274 274 269 268 268 270 270 271 272 273 274 273 273 276 277 275 275 275 276 278 280
273 273 274 271 273 272 273 273 273 273 273 273 274 274 274 274 274 275 276 276 275 275 273 271 267 267 269 268 268 268 270 271 272 273 274 273 274 275 276 276 276 277 277 278
269 270 271 271 270 270 270 271 272 273 273 273 273 273 273 273 274 274 274 275 273 273 271 269 270 269 268 267 267 269 271 272 273 272 273 273 274 273 275 276 276 276 275 274
266 269 269 267 268 269 270 271 271 272 272 272 273 272 273 273 274 274 274 272 272 270 270 271 271 271 271 271 271 272 272 272 272 272 273 272 272 272 272 273 273 274 275 275
265 264 264 265 266 267 269 270 270 271 272 271 271 273 273 273 273 274 274 273 273 272 272 273 273 274 275 275 275 278 278 276 272 272 273 276 296 277 278 279 277 278 280 280